INTELSAT 904 (IS-904)

Last updated on Tue Sep 22 2026 00:03:10 GMT+0000 (Coordinated Universal Time)

1 27380U 02007A 26264.34026334 -.00000225 00000+0 00000+0 0 9992 2 27380 7.1536 67.9886 0003152 112.6309 270.6407 1.00271908 52732
UTC large
Height (km)
Speed (km/s)
/
Latitude / Longitude
Inclination (degrees)
Orbital Period (minutes)
Azimuth
Elevation
Range (km)
Doppler Factor

Next 0 passes for location: London (51.5072 / 0.1276)

No passes found over London.
INTELSAT 904 (IS-904)